[[{"header":{"parameterUnit":"m.s-1","parameterCategory":2,"la1":30.2991,"la2":30.254,"lo1":-89.0895,"lo2":-89.0444,"dy":0.0017,"dx":0.0017,"nx":28,"ny":28,"refTime":"2024-05-08T21:00:00:Z","depth":"0","parameterNumber":2,"parameterNumberName":"U-component_of_CURRENTS"},"data":[0,0,0,0,0,0,0,0,0,0,0,0,0,0,0,0,0,0,0,0,0,0,0,0,0,0,0,0,0,0,0,0,0,0,0,0,0,0,0,0,0,0,0,0,0,0,0,0,0,0,0,0,0,0,0,0,0,0,0.2674,0.2674,0,0.2687,0.2687,0.2687,0.2672,0.2672,0.2671,0.2671,0.2692,0.2693,0.2694,0,0,0,0,0,0,0,0,0,0,0,0,0,0.2671,0.2671,0.2674,0.2674,0.2675,0.2687,0.2687,0.2687,0.2672,0.2672,0.2671,0.2671,0.2692,0.2693,0.2694,0,0,0,0,0,0,0,0,0,0,0,0,0,0.2675,0.2671,0.2674,0.267,0.267,0.2687,0.2687,0.2687,0.2672,0.2672,0.2671,0.2671,0.2691,0.2693,0.2694,0.2713,0,0,0.2698,0.2699,0,0,0,0,0,0,0,0,0.2675,0.2675,0.267,0.267,0.267,0.2679,0.2693,0.2697,0.2672,0.267,0.2671,0.267,0.269,0.2691,0.2692,0.2714,0.2715,0.2698,0.2699,0.27,0.27,0,0,0,0,0,0,0,0.2675,0.2675,0.2677,0.2671,0.2671,0.268,0.2679,0.2694,0.2681,0.267,0.2669,0.2674,0.269,0.2691,0.2693,0.2716,0.2698,0.2699,0.27,0.2701,0.2798,0.28,0,0,0,0,0,0,0.2676,0.2674,0.2677,0.2678,0.2674,0.268,0.268,0.2675,0.2681,0.2682,0.2674,0.2673,0.2689,0.2691,0.2693,0.2749,0.27,0.2701,0.2702,0.2797,0.2799,0.2801,0,0,0,0,0,0,0.2675,0.2675,0.2676,0.2678,0.2679,0.2681,0.2676,0.2676,0.268,0.2685,0.2685,0.2679,0.2689,0.2691,0.2717,0.2748,0.2701,0.2703,0.2795,0.2797,0.28,0.2839,0,0,0,0,0,0,0.2675,0.2675,0.2675,0.2678,0.2679,0.2695,0.2677,0.2677,0.2685,0.2683,0.269,0.2691,0.2688,0.2715,0.2719,0.2749,0.2704,0.2792,0.2796,0.2799,0.2836,0.2843,0.2849,0,0,0,0,0,0.2675,0.2677,0.2675,0.2675,0.2678,0.2697,0.2698,0.2696,0.2685,0.2696,0.27,0.269,0.2739,0.2718,0.2721,0.2753,0.2791,0.2795,0.2799,0.2833,0.2842,0.2849,0,0,0,0,0,0,0.2676,0.2677,0.2673,0.2675,0.269,0.2695,0.2703,0.2702,0.2712,0.2709,0.2707,0.271,0.275,0.2747,0.2723,0.2794,0.2766,0.2771,0.2791,0.28,0.2806,0.2806,0.2705,0,0,0,0,0,0.2677,0.2677,0.2686,0.2689,0.2697,0.2701,0.2708,0.2709,0.2718,0.2721,0.2725,0.2739,0.277,0.2779,0.2801,0.2831,0.2836,0.2858,0.2864,0.287,0.2874,0.2919,0.293,0.2814,0.2814,0.2814,0,0,0.2677,0.268,0.2678,0.269,0.2697,0.2714,0.2703,0.2718,0.2735,0.2724,0.2745,0.2764,0.2785,0.2825,0.2843,0.2824,0.2905,0.2875,0.2879,0.2881,0.2924,0.2935,0.2945,0.2817,0.2816,0.2816,0,0,0.2681,0.2682,0.2685,0.27,0.2718,0.2727,0.2734,0.2745,0.2754,0.2779,0.2786,0.2822,0.2847,0.2877,0.2894,0.2952,0.2944,0.2962,0.2989,0.3033,0.3042,0.3051,0.3065,0.3074,0.2959,0.2959,0.2959,0,0.2683,0.2683,0.2692,0.2706,0.2719,0.2734,0.2748,0.2768,0.2787,0.2804,0.2791,0.286,0.2876,0.2941,0.2963,0.2968,0.2979,0.2953,0.3041,0.3049,0.3057,0.3069,0.3079,0.2962,0.2961,0.2961,0.2961,0,0.2689,0.2695,0.2703,0.2721,0.2743,0.2759,0.2789,0.2814,0.2824,0.2841,0.29,0.2926,0.2964,0.2986,0.2991,0.3066,0.305,0.3047,0.3015,0.3071,0.308,0.309,0.2965,0.2964,0.2964,0.2963,0,0,0.267,0.2698,0.27,0.2707,0.2749,0.2762,0.2811,0.2854,0.2885,0.2915,0.2959,0.302,0.3031,0.3053,0.3073,0.3113,0.3179,0.3104,0.3105,0.3108,0.3258,0.3192,0.3195,0.319,0.3192,0.3194,0.3238,0,0.2669,0.2684,0.2707,0.2731,0.274,0.2784,0.2825,0.2872,0.2915,0.2965,0.3013,0.3063,0.3059,0.3085,0.3127,0.3179,0.3208,0.3166,0.3211,0.3212,0.314,0.3206,0.3085,0.3109,0.3247,0.3249,0.325,0,0.266,0.2671,0.2687,0.2724,0.2734,0.2761,0.283,0.2872,0.2963,0.2997,0.306,0.3097,0.3178,0.3157,0.3254,0.3228,0.3244,0.3269,0.3271,0.3202,0.3164,0.3079,0.3121,0.3084,0.3264,0.3263,0.3262,0,0.2622,0.2654,0.2662,0.2675,0.2728,0.2754,0.2792,0.2878,0.2922,0.3026,0.3073,0.3155,0.3212,0.3257,0.3307,0.3289,0.3399,0.3377,0.3325,0.3319,0.3221,0.3202,0.3223,0.3431,0.3431,0.3431,0.3431,0,0.2602,0.2604,0.2642,0.2645,0.2669,0.2722,0.277,0.2832,0.2926,0.2988,0.3082,0.3148,0.3243,0.3314,0.3334,0.3363,0.3418,0.3342,0.3337,0.3229,0.3212,0.3177,0.3156,0.3433,0.3432,0.3432,0.3432,0,0.2554,0.2578,0.2586,0.2632,0.2649,0.2668,0.2744,0.2782,0.2887,0.2979,0.3017,0.3164,0.3263,0.3333,0.3423,0.3396,0.3331,0.3416,0.3269,0.3245,0.3132,0.3116,0.2928,0.2852,0.3361,0.3359,0.3358,0,0.2527,0.2527,0.2562,0.2567,0.2586,0.2622,0.2651,0.275,0.2804,0.298,0.3024,0.3164,0.3243,0.3349,0.3354,0.3373,0.3286,0.3246,0.3186,0.3121,0.3102,0.2923,0.2862,0.3071,0.3068,0.3065,0.3063,0,0.248,0.2494,0.25,0.251,0.253,0.255,0.2607,0.264,0.2773,0.2855,0.2978,0.3058,0.3195,0.319,0.3228,0.3213,0.3081,0.3188,0.3173,0.2922,0.2677,0.2603,0.3034,0.3039,0.3041,0.3043,0.3044,0.3045,0.2443,0.2432,0.2442,0.2439,0.2457,0.2464,0.245,0.2528,0.2589,0.2695,0.2852,0.293,0.3035,0.3082,0.3052,0.2956,0.2912,0.2866,0.2866,0.27,0.2576,0.2939,0.2905,0.2907,0.2908,0.2909,0.291,0,0.2384,0.2372,0.2369,0.2353,0.2323,0.2369,0.2401,0.2375,0.2395,0.2548,0.2634,0.2738,0.2741,0.28,0.2769,0.2669,0.251,0.2599,0.2359,0.2331,0.2721,0.2663,0.2511,0.2511,0.2511,0.2511,0.2511,0.2511,0.2354,0.2315,0.23,0.222,0.2201,0.214,0.2128,0.2121,0.219,0.2248,0.2316,0.2425,0.2578,0.2611,0.2525,0.2465,0.2297,0.2131,0.2161,0.2509,0.2534,0.2559,0.2502,0.2318,0.2318,0.1643,0.1638,0.1635]},{"header":{"parameterUnit":"m.s-1","parameterCategory":2,"la1":30.2991,"la2":30.254,"lo1":-89.0895,"lo2":-89.0444,"dy":0.0017,"dx":0.0017,"nx":28,"ny":28,"refTime":"2024-05-08T21:00:00:Z","depth":"0","parameterNumber":3,"parameterNumberName":"V-component_of_CURRENTS"},"data":[0,0,0,0,0,0,0,0,0,0,0,0,0,0,0,0,0,0,0,0,0,0,0,0,0,0,0,0,0,0,0,0,0,0,0,0,0,0,0,0,0,0,0,0,0,0,0,0,0,0,0,0,0,0,0,0,0,0,0.0356,0.0356,0,0.0328,0.0328,0.0328,0.0304,0.0303,0.0303,0.0303,0.0257,0.0256,0.0255,0,0,0,0,0,0,0,0,0,0,0,0,0,0.0349,0.0349,0.0356,0.0356,0.0355,0.0328,0.0328,0.0327,0.0304,0.0303,0.0303,0.0303,0.0257,0.0256,0.0254,0,0,0,0,0,0,0,0,0,0,0,0,0,0.0339,0.0349,0.0356,0.0341,0.0339,0.0329,0.0328,0.0327,0.0304,0.0303,0.0303,0.0303,0.0257,0.0256,0.0254,0.025,0,0,0.0249,0.0249,0,0,0,0,0,0,0,0,0.034,0.0339,0.0343,0.0342,0.034,0.032,0.0308,0.0301,0.0304,0.0316,0.0303,0.0303,0.0277,0.0274,0.0268,0.0248,0.0246,0.0249,0.0248,0.0248,0.0247,0,0,0,0,0,0,0,0.034,0.034,0.0344,0.0343,0.0341,0.0322,0.0321,0.0307,0.0297,0.0315,0.0314,0.0312,0.0276,0.027,0.0267,0.0245,0.0249,0.0248,0.0247,0.0246,0.0225,0.0225,0,0,0,0,0,0,0.0348,0.0341,0.0345,0.0343,0.034,0.0323,0.0321,0.0326,0.0298,0.0294,0.0312,0.0311,0.0273,0.0269,0.0265,0.0278,0.0248,0.0246,0.0245,0.0225,0.0225,0.0225,0,0,0,0,0,0,0.0348,0.0349,0.0346,0.0342,0.034,0.0324,0.0329,0.0326,0.0322,0.0296,0.0291,0.0312,0.0272,0.0267,0.026,0.0275,0.0245,0.0244,0.0224,0.0225,0.0225,0.029,0,0,0,0,0,0,0.0348,0.0349,0.0355,0.0343,0.0341,0.0347,0.0329,0.0325,0.0321,0.0319,0.0294,0.029,0.0272,0.0262,0.0258,0.0272,0.0243,0.0224,0.0224,0.0225,0.0288,0.0293,0.0297,0,0,0,0,0,0.0348,0.036,0.0356,0.0357,0.035,0.0347,0.0345,0.0331,0.0322,0.0325,0.0309,0.0291,0.0264,0.0262,0.0257,0.027,0.0223,0.0224,0.0225,0.0285,0.0292,0.0297,0,0,0,0,0,0,0.0359,0.0359,0.0354,0.0365,0.036,0.0344,0.0347,0.0335,0.0325,0.0324,0.0297,0.0291,0.029,0.0269,0.0267,0.0265,0.024,0.024,0.0288,0.0293,0.0298,0.0314,0.0241,0,0,0,0,0,0.0366,0.0377,0.0368,0.0378,0.0378,0.0363,0.036,0.0352,0.034,0.0335,0.0317,0.0299,0.0289,0.0283,0.0268,0.0268,0.0247,0.0272,0.0277,0.0282,0.0291,0.0275,0.028,0.0228,0.0228,0.0228,0,0,0.0372,0.0374,0.0379,0.0381,0.0376,0.0387,0.036,0.0363,0.0373,0.0332,0.0339,0.0316,0.0292,0.0294,0.0291,0.0279,0.0284,0.0283,0.0287,0.0293,0.0276,0.0281,0.0286,0.0229,0.0229,0.0229,0,0,0.0394,0.0394,0.0411,0.0412,0.0412,0.0406,0.0409,0.0398,0.0394,0.0396,0.0371,0.0359,0.034,0.0329,0.032,0.0342,0.0311,0.0335,0.0375,0.036,0.0365,0.0368,0.0345,0.0346,0.0338,0.0338,0.0338,0,0.0401,0.0426,0.0414,0.0432,0.0443,0.0419,0.0443,0.0436,0.0423,0.0428,0.0407,0.0385,0.0359,0.0367,0.0372,0.0355,0.0338,0.0357,0.0368,0.0371,0.0374,0.0349,0.0349,0.0342,0.0341,0.0341,0.0341,0,0.0439,0.0458,0.0469,0.0489,0.0496,0.0512,0.0506,0.0509,0.0499,0.0492,0.0493,0.0454,0.0442,0.043,0.0408,0.0417,0.0396,0.0377,0.0357,0.0383,0.0354,0.0354,0.0346,0.0345,0.0344,0.0343,0,0,0.0461,0.0491,0.0497,0.0521,0.0531,0.0545,0.0563,0.0579,0.0601,0.0573,0.0595,0.0562,0.0535,0.0523,0.0488,0.0471,0.0466,0.0437,0.0434,0.042,0.043,0.0416,0.0413,0.0452,0.0453,0.0453,0.0401,0,0.0498,0.0548,0.0553,0.0605,0.0632,0.0627,0.0651,0.066,0.0657,0.0669,0.0628,0.0632,0.0573,0.0569,0.0542,0.0492,0.0468,0.0482,0.04,0.0398,0.0388,0.0413,0.0462,0.0421,0.04,0.04,0.04,0,0.0539,0.057,0.0628,0.0677,0.0689,0.0716,0.076,0.0778,0.0783,0.078,0.0765,0.073,0.0702,0.0646,0.0567,0.058,0.0511,0.0462,0.0459,0.0425,0.0383,0.039,0.0419,0.0348,0.0398,0.0398,0.0398,0,0.0573,0.0626,0.0679,0.0695,0.074,0.0771,0.0796,0.0816,0.085,0.0852,0.0875,0.0821,0.0809,0.0718,0.0604,0.0591,0.0514,0.0481,0.0399,0.0396,0.0411,0.041,0.037,0.0423,0.0423,0.0424,0.0424,0,0.0617,0.0659,0.0703,0.0734,0.0806,0.0819,0.0893,0.0905,0.094,0.1001,0.0936,0.0966,0.0829,0.0764,0.0642,0.0523,0.0539,0.0414,0.0388,0.0434,0.0435,0.0351,0.0305,0.0422,0.0422,0.0422,0.0423,0,0.065,0.0674,0.074,0.08,0.0825,0.0878,0.0962,0.1015,0.1036,0.1112,0.1121,0.1083,0.1007,0.0855,0.0713,0.0588,0.043,0.0413,0.047,0.0452,0.0308,0.0264,0.0202,0.0168,0.0321,0.032,0.032,0,0.0671,0.0707,0.0789,0.0836,0.087,0.095,0.1011,0.1058,0.1125,0.1195,0.1241,0.1192,0.1185,0.0959,0.0737,0.0526,0.0431,0.041,0.0389,0.0317,0.0248,0.0228,0.0203,0.0429,0.043,0.043,0.043,0,0.0712,0.074,0.0795,0.0891,0.0965,0.1058,0.1152,0.1223,0.1297,0.1375,0.1461,0.1463,0.1261,0.1089,0.0785,0.0622,0.039,0.041,0.0331,0.0331,0.0313,0.0264,0.0433,0.0434,0.0433,0.0433,0.0433,0.0433,0.0741,0.0788,0.0859,0.0953,0.104,0.1161,0.1253,0.1369,0.1502,0.1639,0.163,0.1692,0.1429,0.1038,0.0786,0.0418,0.0411,0.0325,0.0276,0.026,0.024,0.041,0.0383,0.0382,0.0382,0.0381,0.0381,0,0.0776,0.0832,0.0916,0.1032,0.1132,0.1177,0.1343,0.1453,0.1631,0.1778,0.1869,0.1846,0.1506,0.1131,0.0636,0.036,0.0255,0.0212,0.0206,0.0182,0.0336,0.0353,0.0326,0.0326,0.0326,0.0326,0.0326,0.0327,0.0796,0.0876,0.0922,0.1085,0.1171,0.1324,0.1427,0.1603,0.1757,0.1989,0.2103,0.2162,0.1959,0.1021,0.0439,0.0275,0.0108,0.0066,-0.0033,0.0082,0.0089,0.0096,0.0102,0.0023,0.0022,-0.0129,-0.013,-0.0132]}],[{"header":{"parameterUnit":"m.s-1","parameterCategory":2,"la1":30.2991,"la2":30.254,"lo1":-89.0895,"lo2":-89.0444,"dy":0.0017,"dx":0.0017,"nx":28,"ny":28,"refTime":"2024-05-08T21:00:00:Z","depth":"2","parameterNumber":2,"parameterNumberName":"U-component_of_CURRENTS"},"data":[0,0,0,0,0,0,0,0,0,0,0,0,0,0,0,0,0,0,0,0,0,0,0,0,0,0,0,0,0,0,0,0,0,0,0,0,0,0,0,0,0,0,0,0,0,0,0,0,0,0,0,0,0,0,0,0,0,0,0.255,0.2551,0,0.2554,0.2554,0.2554,0.254,0.254,0.254,0.2539,0.2552,0.2552,0.2553,0,0,0,0,0,0,0,0,0,0,0,0,0,0.2553,0.2552,0.255,0.2551,0.2551,0.2554,0.2554,0.2554,0.254,0.254,0.254,0.2539,0.2551,0.2552,0.2553,0,0,0,0,0,0,0,0,0,0,0,0,0,0.2551,0.2552,0.255,0.2546,0.2546,0.2554,0.2554,0.2554,0.254,0.254,0.254,0.2539,0.2551,0.2552,0.2553,0.2564,0,0,0.2555,0.2555,0,0,0,0,0,0,0,0,0.2551,0.2551,0.2546,0.2546,0.2546,0.2548,0.256,0.2558,0.254,0.254,0.2539,0.2539,0.2553,0.2554,0.2552,0.2564,0.2565,0.2555,0.2556,0.2556,0.2556,0,0,0,0,0,0,0,0.2551,0.2551,0.255,0.2547,0.2547,0.2552,0.2551,0.2559,0.2546,0.254,0.2539,0.2544,0.2553,0.2551,0.2552,0.2565,0.2555,0.2556,0.2556,0.2557,0.2637,0.2639,0,0,0,0,0,0,0.2555,0.2551,0.2549,0.255,0.2551,0.2552,0.2551,0.2546,0.2546,0.2547,0.2544,0.2543,0.255,0.2551,0.2552,0.2604,0.2556,0.2557,0.2557,0.2636,0.2638,0.264,0,0,0,0,0,0,0.2555,0.2554,0.2549,0.2553,0.2553,0.2552,0.2547,0.2546,0.2551,0.255,0.2549,0.2551,0.2549,0.2551,0.2572,0.2603,0.2557,0.2558,0.2634,0.2636,0.2639,0.2682,0,0,0,0,0,0,0.2554,0.2554,0.2555,0.2553,0.2553,0.2565,0.2548,0.2547,0.2555,0.2554,0.2556,0.2556,0.2549,0.2571,0.2573,0.2603,0.2558,0.2632,0.2635,0.2638,0.2679,0.2686,0.2692,0,0,0,0,0,0.2554,0.2557,0.2555,0.2555,0.2553,0.2566,0.2567,0.2564,0.2556,0.2565,0.2567,0.2556,0.2593,0.2573,0.2574,0.2606,0.263,0.2634,0.2638,0.2676,0.2685,0.2692,0,0,0,0,0,0,0.2558,0.2556,0.2553,0.2555,0.2566,0.2565,0.2573,0.2571,0.2578,0.2577,0.2571,0.2572,0.2607,0.2601,0.2579,0.2641,0.2613,0.2617,0.2641,0.265,0.2656,0.2658,0.2559,0,0,0,0,0,0.2561,0.2561,0.2565,0.2569,0.2575,0.2576,0.2581,0.2581,0.2586,0.2589,0.259,0.26,0.2624,0.2631,0.2647,0.2672,0.2675,0.2697,0.2704,0.2709,0.2714,0.2754,0.2765,0.2652,0.2652,0.2652,0,0,0.2561,0.2563,0.2561,0.257,0.2575,0.2588,0.2578,0.2591,0.2605,0.259,0.2609,0.2625,0.2638,0.2672,0.2687,0.2669,0.2743,0.2714,0.2719,0.2721,0.2759,0.277,0.278,0.2655,0.2654,0.2654,0,0,0.2566,0.2567,0.257,0.2583,0.2598,0.2603,0.2611,0.2618,0.2626,0.2648,0.2651,0.2683,0.2701,0.2724,0.2737,0.2791,0.2782,0.28,0.2829,0.2869,0.2878,0.2886,0.2899,0.2908,0.2798,0.2798,0.2798,0,0.257,0.2568,0.2576,0.2588,0.2599,0.2612,0.2623,0.264,0.2654,0.2669,0.266,0.2717,0.2729,0.2783,0.2806,0.2807,0.2817,0.2794,0.2877,0.2885,0.2892,0.2904,0.2913,0.2801,0.28,0.28,0.28,0,0.2574,0.258,0.2587,0.2602,0.2621,0.2634,0.2659,0.2683,0.2694,0.2708,0.2761,0.2781,0.2814,0.2833,0.2835,0.2904,0.289,0.2883,0.2852,0.2906,0.2915,0.2924,0.2804,0.2803,0.2803,0.2802,0,0,0.2559,0.2583,0.2584,0.259,0.2627,0.2638,0.2682,0.2718,0.2747,0.2775,0.2816,0.2869,0.2881,0.2899,0.2914,0.2951,0.3015,0.2942,0.2943,0.2947,0.3088,0.3022,0.3025,0.3024,0.3026,0.3028,0.3069,0,0.2557,0.2569,0.2591,0.261,0.2617,0.2657,0.2694,0.2735,0.2774,0.282,0.2864,0.291,0.2906,0.2932,0.2971,0.3015,0.3042,0.3003,0.3041,0.3041,0.2971,0.3035,0.2776,0.2786,0.3077,0.3079,0.308,0,0.2548,0.2557,0.2571,0.2604,0.2613,0.2637,0.2699,0.2737,0.2819,0.2851,0.2911,0.2944,0.302,0.3002,0.3089,0.3066,0.308,0.31,0.3102,0.3032,0.2993,0.2782,0.2792,0.3094,0.3093,0.3092,0.3091,0,0.2513,0.2541,0.2548,0.256,0.2606,0.2632,0.2666,0.2744,0.2784,0.2882,0.2927,0.3002,0.3055,0.3096,0.3142,0.3124,0.3225,0.32,0.3148,0.3142,0.2924,0.2895,0.3251,0.3251,0.3251,0.3251,0.3251,0,0.2494,0.2496,0.2531,0.2534,0.2557,0.2605,0.2649,0.2707,0.2793,0.2849,0.2939,0.2999,0.3086,0.315,0.3167,0.319,0.3243,0.3166,0.3159,0.2931,0.2905,0.3171,0.3161,0.3252,0.3252,0.3252,0.3251,0,0.2449,0.2472,0.2479,0.2522,0.2539,0.2557,0.2629,0.2662,0.2762,0.2846,0.2883,0.3017,0.3107,0.317,0.3249,0.3222,0.3249,0.3234,0.2953,0.2912,0.3127,0.312,0.318,0.3178,0.3177,0.3176,0.3175,0,0.2424,0.2424,0.2458,0.2463,0.2482,0.2517,0.2543,0.2636,0.2684,0.2847,0.2885,0.3015,0.308,0.3173,0.3155,0.3165,0.3232,0.2919,0.2841,0.3139,0.3126,0.312,0.3115,0.2562,0.2556,0.2551,0.2547,0,0.238,0.2394,0.24,0.241,0.2429,0.2447,0.2499,0.2529,0.2651,0.2725,0.2832,0.29,0.3005,0.291,0.2937,0.2903,0.2898,0.282,0.3214,0.2628,0.2561,0.2547,0.2561,0.2503,0.2508,0.2511,0.2513,0.2515,0.2345,0.2335,0.2345,0.2343,0.2359,0.2362,0.2347,0.2413,0.2464,0.2542,0.2684,0.2695,0.2729,0.2645,0.2562,0.249,0.2696,0.2553,0.2566,0.2584,0.2514,0.2449,0.2355,0.2358,0.2361,0.2364,0.2366,0,0.2286,0.2278,0.2274,0.2258,0.2226,0.2273,0.2297,0.2256,0.2262,0.2362,0.2418,0.2235,0.2176,0.2206,0.2035,0.2034,0.1986,0.1937,0.1847,0.1893,0.1933,0.1826,0.1487,0.1484,0.1481,0.1479,0,0,0.2257,0.2219,0.2204,0.2124,0.2108,0.2041,0.2027,0.199,0.2014,0.1979,0.1958,0.2113,0.2168,0.1816,0.176,0.1595,0.173,0.1525,0.2235,0.2177,0.2214,0.2299,0.2189,0,0,0,0,0]},{"header":{"parameterUnit":"m.s-1","parameterCategory":2,"la1":30.2991,"la2":30.254,"lo1":-89.0895,"lo2":-89.0444,"dy":0.0017,"dx":0.0017,"nx":28,"ny":28,"refTime":"2024-05-08T21:00:00:Z","depth":"2","parameterNumber":3,"parameterNumberName":"V-component_of_CURRENTS"},"data":[0,0,0,0,0,0,0,0,0,0,0,0,0,0,0,0,0,0,0,0,0,0,0,0,0,0,0,0,0,0,0,0,0,0,0,0,0,0,0,0,0,0,0,0,0,0,0,0,0,0,0,0,0,0,0,0,0,0,0.0271,0.0271,0,0.0242,0.0242,0.0241,0.0219,0.0219,0.0219,0.0219,0.0172,0.0171,0.017,0,0,0,0,0,0,0,0,0,0,0,0,0,0.0267,0.0267,0.0271,0.0271,0.027,0.0242,0.0242,0.0241,0.0219,0.0219,0.0219,0.0219,0.0172,0.0171,0.017,0,0,0,0,0,0,0,0,0,0,0,0,0,0.0256,0.0267,0.0271,0.0257,0.0255,0.0242,0.0242,0.0241,0.0219,0.0219,0.0219,0.0219,0.0173,0.0171,0.0169,0.0163,0,0,0.0164,0.0164,0,0,0,0,0,0,0,0,0.0256,0.0256,0.0259,0.0258,0.0256,0.0235,0.0223,0.0214,0.0219,0.0232,0.0219,0.0219,0.0192,0.0189,0.0183,0.016,0.0158,0.0164,0.0163,0.0162,0.0162,0,0,0,0,0,0,0,0.0257,0.0257,0.0259,0.0259,0.0257,0.0238,0.0237,0.0221,0.0212,0.0231,0.0229,0.0228,0.0191,0.0184,0.0181,0.0158,0.0164,0.0163,0.0162,0.0161,0.0137,0.0138,0,0,0,0,0,0,0.0265,0.0258,0.026,0.0258,0.0257,0.0239,0.0237,0.0241,0.0213,0.0209,0.0228,0.0227,0.0187,0.0183,0.018,0.0191,0.0162,0.0161,0.016,0.0137,0.0137,0.0138,0,0,0,0,0,0,0.0265,0.0266,0.0261,0.0257,0.0255,0.0239,0.0244,0.0241,0.0237,0.0211,0.0206,0.0229,0.0187,0.0182,0.0174,0.0188,0.016,0.0158,0.0136,0.0137,0.0138,0.02,0,0,0,0,0,0,0.0265,0.0266,0.0272,0.0258,0.0256,0.0261,0.0244,0.024,0.0237,0.0235,0.021,0.0205,0.0187,0.0177,0.0173,0.0185,0.0157,0.0136,0.0137,0.0137,0.0198,0.0203,0.0208,0,0,0,0,0,0.0265,0.0277,0.0273,0.0273,0.0265,0.0261,0.0259,0.0245,0.0237,0.024,0.0225,0.0206,0.0178,0.0176,0.0171,0.0184,0.0136,0.0136,0.0137,0.0196,0.0202,0.0207,0,0,0,0,0,0,0.0277,0.0275,0.0271,0.0281,0.0275,0.0258,0.0261,0.025,0.0239,0.024,0.0212,0.0206,0.0204,0.0184,0.0182,0.0178,0.0154,0.0153,0.02,0.0205,0.021,0.0226,0.0156,0,0,0,0,0,0.0284,0.0293,0.0284,0.0293,0.0293,0.0278,0.0274,0.0267,0.0255,0.025,0.0232,0.0214,0.0203,0.0197,0.0181,0.018,0.0158,0.0183,0.0188,0.0192,0.0201,0.0183,0.0187,0.0141,0.0141,0.0141,0,0,0.029,0.0291,0.0296,0.0296,0.0291,0.0301,0.0275,0.0278,0.0286,0.0247,0.0253,0.0231,0.0206,0.0206,0.0203,0.0192,0.0193,0.0194,0.0198,0.0204,0.0185,0.0189,0.0193,0.0141,0.0141,0.0141,0,0,0.031,0.031,0.0326,0.0327,0.0326,0.032,0.0323,0.0311,0.0308,0.0308,0.0284,0.0272,0.0253,0.024,0.023,0.0251,0.022,0.0244,0.0283,0.0266,0.027,0.0273,0.025,0.0251,0.0248,0.0248,0.0248,0,0.0317,0.034,0.0329,0.0346,0.0355,0.0333,0.0355,0.0347,0.0334,0.0339,0.032,0.0296,0.027,0.0275,0.0281,0.0264,0.0246,0.0266,0.0274,0.0276,0.0279,0.0254,0.0254,0.0251,0.0251,0.025,0.025,0,0.0352,0.037,0.0381,0.0399,0.0405,0.042,0.0414,0.0417,0.0408,0.04,0.0399,0.0362,0.0349,0.0337,0.0315,0.0322,0.0302,0.0283,0.0262,0.0287,0.0259,0.0258,0.0255,0.0254,0.0253,0.0253,0,0,0.0374,0.0401,0.0407,0.043,0.0439,0.0451,0.0468,0.0482,0.0502,0.0475,0.0495,0.0462,0.0438,0.0425,0.0391,0.0373,0.0367,0.034,0.0337,0.0323,0.0327,0.0312,0.0309,0.0351,0.0352,0.0352,0.03,0,0.0408,0.0455,0.0459,0.0508,0.0534,0.0528,0.0551,0.0558,0.0554,0.0565,0.0525,0.0527,0.0473,0.047,0.0442,0.0391,0.0367,0.0382,0.0299,0.0297,0.0286,0.0309,0.0316,0.0271,0.0299,0.0298,0.0298,0,0.0447,0.0476,0.0531,0.0576,0.0589,0.0614,0.0655,0.0671,0.0673,0.067,0.0655,0.0622,0.0593,0.0541,0.0462,0.0475,0.0408,0.0359,0.0355,0.0321,0.0281,0.025,0.0267,0.0296,0.0296,0.0296,0.0296,0,0.048,0.053,0.058,0.0595,0.0637,0.0667,0.0691,0.0708,0.0739,0.074,0.0762,0.0707,0.0696,0.0606,0.0496,0.0483,0.0404,0.0371,0.0291,0.0289,0.0268,0.0264,0.0313,0.0313,0.0313,0.0313,0.0314,0,0.0523,0.0563,0.0604,0.0634,0.0703,0.0715,0.0786,0.0796,0.0827,0.0884,0.0822,0.0847,0.0714,0.0649,0.053,0.0413,0.0427,0.0306,0.028,0.0289,0.0288,0.0287,0.0284,0.0312,0.0312,0.0312,0.0313,0,0.0556,0.0579,0.0641,0.0698,0.0722,0.0775,0.0854,0.0903,0.0923,0.0993,0.1001,0.0959,0.0883,0.0735,0.0593,0.0473,0.035,0.03,0.0317,0.0295,0.0235,0.0236,0.0211,0.021,0.0209,0.0209,0.0208,0,0.0577,0.0612,0.069,0.0736,0.0769,0.0846,0.0904,0.0947,0.101,0.1071,0.1113,0.1061,0.1047,0.0822,0.0605,0.0398,0.036,0.0253,0.0228,0.025,0.0227,0.0229,0.0231,0.0219,0.0218,0.0218,0.0218,0,0.0618,0.0645,0.0698,0.079,0.0862,0.0951,0.104,0.1106,0.1173,0.1243,0.1316,0.131,0.1106,0.0903,0.0607,0.0455,0.0285,0.0241,0.0266,0.0248,0.0254,0.0233,0.0235,0.0215,0.0215,0.0216,0.0216,0.0216,0.0647,0.0693,0.0761,0.0852,0.0936,0.105,0.1136,0.1241,0.1361,0.1468,0.1457,0.145,0.12,0.0834,0.0564,0.0273,0.0301,0.018,0.0182,0.0184,0.0199,0.0205,0.0158,0.0158,0.0158,0.0158,0.0158,0,0.0681,0.0736,0.0817,0.0927,0.1022,0.1067,0.1222,0.1312,0.1469,0.1557,0.1621,0.1384,0.1152,0.0855,0.0441,0.0198,0.0166,0.0094,0.0113,0.0118,0.0122,0.0134,0.0075,0.0074,0.0073,0.0072,0,0,0.0699,0.0776,0.0819,0.0974,0.1059,0.1199,0.1296,0.1433,0.1532,0.1625,0.1625,0.1588,0.1247,0.092,0.058,0.0335,0.0277,0.027,0.0366,0.0436,0.0442,0.0203,0.0231,0,0,0,0,0]}],[{"header":{"parameterUnit":"m.s-1","parameterCategory":2,"la1":30.2991,"la2":30.254,"lo1":-89.0895,"lo2":-89.0444,"dy":0.0017,"dx":0.0017,"nx":28,"ny":28,"refTime":"2024-05-08T21:00:00:Z","depth":"4","parameterNumber":2,"parameterNumberName":"U-component_of_CURRENTS"},"data":[0,0,0,0,0,0,0,0,0,0,0,0,0,0,0,0,0,0,0,0,0,0,0,0,0,0,0,0,0,0,0,0,0,0,0,0,0,0,0,0,0,0,0,0,0,0,0,0,0,0,0,0,0,0,0,0,0,0,0.1748,0.1748,0,0.177,0.177,0.177,0.18,0.1801,0.1802,0.1803,0.1832,0.1832,0.1832,0,0,0,0,0,0,0,0,0,0,0,0,0,0.1711,0.1711,0.1748,0.1748,0.1749,0.177,0.177,0.177,0.18,0.1801,0.1802,0.1803,0.1832,0.1832,0.1832,0,0,0,0,0,0,0,0,0,0,0,0,0,0.1727,0.1711,0.1748,0.1769,0.1771,0.177,0.177,0.177,0.18,0.1801,0.1802,0.1803,0.1832,0.1832,0.1832,0.1809,0,0,0.1833,0.1833,0,0,0,0,0,0,0,0,0.1726,0.1727,0.1765,0.1767,0.177,0.1786,0.1768,0.1785,0.18,0.1786,0.1803,0.1804,0.1819,0.182,0.1817,0.1811,0.1812,0.1833,0.1833,0.1833,0.1833,0,0,0,0,0,0,0,0.1725,0.1727,0.1753,0.1766,0.1769,0.177,0.1774,0.1771,0.1793,0.1787,0.179,0.1797,0.182,0.1817,0.1818,0.1813,0.1833,0.1833,0.1833,0.1833,0.1901,0.1903,0,0,0,0,0,0,0.1728,0.1726,0.1753,0.1754,0.1754,0.177,0.1774,0.1777,0.1793,0.1797,0.1796,0.1798,0.1816,0.1818,0.1819,0.1892,0.1833,0.1833,0.1833,0.19,0.1902,0.1904,0,0,0,0,0,0,0.1727,0.173,0.1752,0.1743,0.1747,0.177,0.1773,0.1777,0.1812,0.18,0.1805,0.1832,0.1817,0.1819,0.1852,0.189,0.1833,0.1833,0.1897,0.19,0.1903,0.1974,0,0,0,0,0,0,0.1726,0.1729,0.175,0.1743,0.1747,0.1777,0.1773,0.1777,0.1814,0.1818,0.1831,0.1833,0.1818,0.1852,0.1852,0.1889,0.1833,0.1895,0.1899,0.1902,0.1969,0.1978,0.1986,0,0,0,0,0,0.1724,0.1741,0.1751,0.1755,0.1769,0.1779,0.1781,0.1799,0.1815,0.1834,0.1848,0.1835,0.1874,0.1853,0.1853,0.1891,0.1894,0.1898,0.1902,0.1965,0.1977,0.1986,0,0,0,0,0,0,0.1736,0.1745,0.1756,0.1777,0.1791,0.1786,0.1811,0.1821,0.1845,0.1862,0.185,0.1853,0.1899,0.1885,0.1863,0.1922,0.1884,0.1888,0.1933,0.1943,0.1952,0.1954,0.1833,0,0,0,0,0,0.1748,0.1767,0.1772,0.1795,0.1806,0.1816,0.183,0.1842,0.1855,0.1869,0.1879,0.1893,0.1907,0.1919,0.1927,0.1952,0.1946,0.1979,0.1988,0.1995,0.1999,0.2027,0.2039,0.1917,0.1917,0.1916,0,0,0.1759,0.1769,0.1782,0.18,0.1814,0.183,0.1828,0.186,0.1882,0.1866,0.1914,0.1926,0.1923,0.1957,0.1976,0.1954,0.2029,0.2,0.2006,0.2006,0.2033,0.2044,0.2055,0.1919,0.1919,0.1918,0,0,0.1776,0.1802,0.1819,0.1835,0.1865,0.1868,0.1887,0.1905,0.193,0.1966,0.1968,0.2004,0.2022,0.2028,0.2031,0.2091,0.2077,0.2104,0.2146,0.2174,0.2184,0.2193,0.2205,0.2214,0.2104,0.2104,0.2105,0,0.1795,0.1809,0.1828,0.1846,0.1865,0.189,0.191,0.1932,0.1963,0.1985,0.1996,0.2047,0.2053,0.2086,0.2116,0.2111,0.2121,0.2104,0.2185,0.2193,0.2201,0.2212,0.2221,0.2108,0.2108,0.2107,0.2107,0,0.1806,0.1836,0.185,0.188,0.1904,0.1929,0.1957,0.1997,0.2033,0.2049,0.2111,0.2125,0.2154,0.2169,0.2162,0.2224,0.2212,0.2195,0.2156,0.2218,0.2225,0.2233,0.2114,0.2113,0.2111,0.211,0,0,0.1796,0.1848,0.1857,0.1877,0.1926,0.1939,0.1995,0.2035,0.2074,0.2122,0.2171,0.2214,0.2236,0.2242,0.2248,0.2277,0.2348,0.227,0.227,0.2279,0.2411,0.225,0.2243,0.2352,0.2354,0.2355,0.2395,0,0.1801,0.1835,0.1865,0.1908,0.1924,0.1975,0.2017,0.2066,0.2114,0.217,0.2209,0.2259,0.2258,0.2291,0.2323,0.2347,0.2374,0.2338,0.2353,0.2353,0.2199,0.2248,0.2361,0.2401,0.2403,0.2404,0.2405,0,0.1791,0.1817,0.186,0.1916,0.1931,0.1971,0.2046,0.209,0.2171,0.2214,0.2276,0.2308,0.2375,0.2363,0.2431,0.2414,0.2424,0.2431,0.2433,0.226,0.2207,0.2327,0.242,0.2419,0.2418,0.2417,0.2416,0,0.1747,0.1808,0.1844,0.1864,0.1936,0.1982,0.203,0.2111,0.2154,0.2257,0.2304,0.2372,0.2426,0.2457,0.2487,0.2475,0.2546,0.252,0.2377,0.2366,0.2468,0.2458,0.256,0.256,0.256,0.256,0.256,0,0.1715,0.1746,0.1836,0.1853,0.1907,0.197,0.2039,0.2102,0.2192,0.2238,0.2332,0.2371,0.2459,0.2505,0.2513,0.2468,0.2567,0.2388,0.2366,0.2497,0.249,0.2474,0.2463,0.2561,0.2561,0.2561,0.256,0,0.1653,0.1713,0.1758,0.1852,0.1889,0.1932,0.2039,0.2075,0.2184,0.2254,0.2294,0.2401,0.2454,0.2508,0.256,0.2482,0.2465,0.2423,0.2567,0.2552,0.226,0.2253,0.2257,0.2252,0.2247,0.2244,0.224,0,0.1617,0.1638,0.175,0.1782,0.1834,0.191,0.1954,0.2064,0.2101,0.2241,0.2259,0.2361,0.2412,0.2351,0.2424,0.2414,0.2384,0.2353,0.2295,0.2251,0.2231,0.2231,0.223,0.2233,0.2232,0.2231,0.223,0,0.1549,0.1612,0.1652,0.1721,0.1781,0.1825,0.1902,0.1914,0.2031,0.2151,0.2159,0.2172,0.2223,0.2243,0.2255,0.2244,0.2359,0.2305,0.2313,0.2259,0.2222,0.2206,0.2211,0.2214,0.2216,0.2218,0.2219,0,0.1509,0.1523,0.1592,0.1632,0.1702,0.1712,0.1765,0.1795,0.1842,0.1991,0.1988,0.2093,0.2198,0.2155,0.2168,0.2144,0.2103,0.2017,0.2039,0.2058,0.1972,0.1895,0.1768,0,0,0,0,0,0.1454,0.1453,0.149,0.1521,0.1581,0.162,0.1711,0.1763,0.1881,0.1833,0.1899,0.1931,0.1932,0.1987,0.1921,0.2085,0.2122,0.1998,0.2038,0.2127,0.2145,0.2061,0,0,0,0,0,0,0.1416,0.1452,0.1452,0.1416,0.1415,0.1462,0.1515,0.1596,0.1573,0.1701,0.1715,0.1806,0.1846,0.1949,0.1882,0.1898,0.1878,0.2065,0.206,0.2116,0.2133,0.2147,0.2068,0,0,0,0,0]},{"header":{"parameterUnit":"m.s-1","parameterCategory":2,"la1":30.2991,"la2":30.254,"lo1":-89.0895,"lo2":-89.0444,"dy":0.0017,"dx":0.0017,"nx":28,"ny":28,"refTime":"2024-05-08T21:00:00:Z","depth":"4","parameterNumber":3,"parameterNumberName":"V-component_of_CURRENTS"},"data":[0,0,0,0,0,0,0,0,0,0,0,0,0,0,0,0,0,0,0,0,0,0,0,0,0,0,0,0,0,0,0,0,0,0,0,0,0,0,0,0,0,0,0,0,0,0,0,0,0,0,0,0,0,0,0,0,0,0,0.0167,0.0167,0,0.0149,0.0149,0.0149,0.0138,0.0138,0.0138,0.0138,0.0108,0.0107,0.0106,0,0,0,0,0,0,0,0,0,0,0,0,0,0.0161,0.0162,0.0167,0.0167,0.0167,0.0149,0.0149,0.0149,0.0138,0.0138,0.0138,0.0138,0.0108,0.0107,0.0106,0,0,0,0,0,0,0,0,0,0,0,0,0,0.0155,0.0162,0.0167,0.0159,0.0159,0.0149,0.0149,0.0149,0.0138,0.0138,0.0138,0.0138,0.0108,0.0107,0.0106,0.0099,0,0,0.0102,0.0102,0,0,0,0,0,0,0,0,0.0156,0.0155,0.0161,0.016,0.0159,0.0146,0.0136,0.0132,0.0138,0.0145,0.0138,0.0138,0.012,0.0118,0.0114,0.0097,0.0096,0.0102,0.0102,0.0101,0.0101,0,0,0,0,0,0,0,0.0156,0.0156,0.0159,0.0161,0.016,0.0147,0.0146,0.0135,0.0132,0.0144,0.0144,0.0143,0.0119,0.0115,0.0113,0.0096,0.0102,0.0101,0.0101,0.01,0.0087,0.0088,0,0,0,0,0,0,0.0161,0.0157,0.016,0.0159,0.0158,0.0147,0.0146,0.015,0.0132,0.013,0.0143,0.0142,0.0117,0.0114,0.0112,0.0125,0.0101,0.01,0.0099,0.0087,0.0087,0.0088,0,0,0,0,0,0,0.0161,0.0162,0.016,0.0157,0.0156,0.0148,0.0151,0.0149,0.0151,0.0131,0.0129,0.0147,0.0117,0.0114,0.0112,0.0123,0.0099,0.0098,0.0086,0.0087,0.0088,0.0137,0,0,0,0,0,0,0.0161,0.0162,0.0168,0.0158,0.0157,0.0162,0.0151,0.0149,0.015,0.015,0.0134,0.0131,0.0117,0.0113,0.011,0.0121,0.0097,0.0086,0.0087,0.0087,0.0134,0.0139,0.0142,0,0,0,0,0,0.0161,0.017,0.0169,0.0169,0.0165,0.0163,0.0161,0.0154,0.0151,0.0154,0.0146,0.0132,0.0115,0.0113,0.0109,0.012,0.0086,0.0087,0.0087,0.0133,0.0138,0.0142,0,0,0,0,0,0,0.0169,0.0169,0.0168,0.0176,0.0173,0.0161,0.0165,0.0159,0.0155,0.0157,0.0137,0.0134,0.0135,0.012,0.0118,0.0117,0.0098,0.0098,0.0134,0.0138,0.0142,0.0154,0.0096,0,0,0,0,0,0.0175,0.0184,0.0178,0.0186,0.0187,0.0177,0.0176,0.0172,0.0166,0.0164,0.0153,0.0142,0.0134,0.0131,0.012,0.0121,0.0102,0.0124,0.0128,0.0132,0.0138,0.0119,0.0122,0.009,0.009,0.009,0,0,0.018,0.0182,0.0186,0.0188,0.0186,0.0195,0.0177,0.0181,0.019,0.0162,0.0171,0.0156,0.0137,0.014,0.0139,0.013,0.013,0.0133,0.0136,0.0141,0.012,0.0123,0.0126,0.0091,0.0091,0.0091,0,0,0.0195,0.0198,0.021,0.0213,0.0215,0.0211,0.0215,0.0209,0.0209,0.0214,0.0197,0.019,0.0178,0.0168,0.0161,0.0179,0.0151,0.0175,0.0205,0.0187,0.0189,0.0191,0.0168,0.0168,0.0177,0.0177,0.0177,0,0.0201,0.0219,0.0213,0.0226,0.0236,0.0222,0.024,0.0237,0.0231,0.0237,0.0225,0.021,0.0192,0.0196,0.0202,0.0189,0.0172,0.019,0.0192,0.0194,0.0195,0.0171,0.017,0.018,0.0179,0.0179,0.0179,0,0.0226,0.0242,0.0251,0.0268,0.0275,0.0288,0.0287,0.0292,0.029,0.0286,0.0289,0.0262,0.0255,0.0245,0.023,0.0232,0.0215,0.0199,0.0182,0.0201,0.0175,0.0173,0.0183,0.0182,0.0182,0.0181,0,0,0.0237,0.0264,0.0269,0.029,0.0302,0.0313,0.033,0.0343,0.0362,0.0345,0.0362,0.034,0.0324,0.0314,0.0289,0.027,0.026,0.0243,0.0241,0.0225,0.0216,0.0198,0.0193,0.0245,0.0245,0.0245,0.0194,0,0.0261,0.03,0.0307,0.0349,0.0371,0.0373,0.0393,0.0403,0.0404,0.0415,0.0385,0.0391,0.0351,0.0351,0.0325,0.0281,0.0257,0.0275,0.0197,0.0195,0.0179,0.0191,0.0245,0.0192,0.0191,0.0191,0.0191,0,0.0287,0.0312,0.0359,0.0402,0.0413,0.0438,0.0477,0.0493,0.0498,0.0499,0.049,0.0464,0.0441,0.0402,0.033,0.0344,0.0287,0.0243,0.024,0.0205,0.0173,0.0168,0.0187,0.0187,0.0187,0.0187,0.0188,0,0.0305,0.0351,0.0395,0.0409,0.0451,0.0481,0.0505,0.0524,0.0552,0.0557,0.0574,0.053,0.0522,0.0444,0.0352,0.0344,0.0265,0.0241,0.0167,0.0164,0.0174,0.0173,0.0187,0.0187,0.0187,0.0187,0.0188,0,0.0331,0.0367,0.0413,0.0439,0.0502,0.0518,0.0583,0.0595,0.0625,0.0668,0.0625,0.0638,0.0534,0.0474,0.0375,0.0268,0.0281,0.0176,0.0153,0.0195,0.0197,0.0172,0.0171,0.0185,0.0186,0.0186,0.0187,0,0.0347,0.0373,0.0429,0.0488,0.0514,0.0562,0.0641,0.0681,0.0704,0.0756,0.0764,0.0726,0.0651,0.0533,0.0407,0.0311,0.0201,0.0157,0.0215,0.0195,0.0105,0.0107,0.0072,0.0071,0.007,0.0069,0.0069,0,0.0358,0.0388,0.0468,0.051,0.0546,0.062,0.0673,0.0718,0.0765,0.081,0.0835,0.0787,0.0742,0.0555,0.0419,0.0227,0.0191,0.0125,0.0109,0.0114,0.0095,0.0098,0.0101,0.0067,0.0067,0.0067,0.0067,0,0.0379,0.041,0.0458,0.0543,0.0612,0.0691,0.077,0.081,0.0867,0.0889,0.0897,0.0807,0.0721,0.0563,0.0415,0.0273,0.0163,0.0115,0.0116,0.01,0.0108,0.009,0.0095,0.0064,0.0064,0.0064,0.0064,0,0.0396,0.0432,0.0494,0.0573,0.0658,0.074,0.0783,0.0844,0.0891,0.0935,0.0935,0.0844,0.0795,0.0587,0.0451,0.031,0.0265,0.0199,0.0194,0.0195,0.0238,0.0267,0.0257,0,0,0,0,0,0.0407,0.0447,0.0518,0.0603,0.0689,0.074,0.0838,0.0874,0.0931,0.0941,0.0942,0.0861,0.0674,0.0597,0.0453,0.0415,0.0227,0.0238,0.0146,0.0047,0.005,0.0077,0,0,0,0,0,0,0.0413,0.0475,0.0511,0.0614,0.0675,0.0771,0.0836,0.0876,0.0884,0.0918,0.0825,0.0798,0.0617,0.0753,0.0441,0.0401,0.0315,0.016,0.0156,0.0045,0.0048,0.0051,0.0079,0,0,0,0,0]}]]